Dewpoint
68 70 71 69 69 68 70 70 70 70 69 67 66 66 65 64 63 61 60 61 63 64 63 61 63 65 65 65 65 65 63 59 58 60 61 60 59 59 61 61 61 59 60
69 70 70 70 69 68 70 70 70 70 70 68 66 65 64 63 62 60 59 60 61 63 65 67 65 65 67 66 65 63 59 59 60 60 59 59 60 60 61 61 61 58 59
70 70 69 70 69 69 69 70 70 69 69 68 66 66 63 62 59 58 58 59 60 62 65 65 65 65 64 63 61 57 56 59 61 62 62 58 58 59 58 61 60 62 59
69 70 69 70 69 68 67 67 68 68 68 67 65 64 63 62 58 58 58 60 60 63 63 63 64 63 62 62 62 60 61 63 63 62 58 58 58 62 59 58 59 60 62
69 69 69 70 68 66 66 65 65 66 66 66 66 65 63 61 59 59 59 59 60 61 61 61 61 61 61 62 63 62 62 62 62 60 58 58 61 63 61 62 63 62 60
69 69 70 70 69 68 66 64 63 63 65 66 67 64 62 61 62 60 60 61 61 61 61 61 61 62 62 62 62 62 63 64 61 60 59 58 62 63 62 64 64 64 65
69 70 70 70 68 67 65 65 65 65 67 68 67 63 63 62 63 62 61 61 62 63 63 63 63 63 64 64 64 64 64 61 61 60 60 62 63 61 62 61 62 65 65
69 70 70 70 69 68 65 67 67 67 65 66 65 64 63 62 63 64 63 62 62 63 64 64 64 65 65 65 64 62 60 58 58 59 60 60 61 60 60 60 63 62 62
69 69 70 70 69 69 67 66 68 66 65 64 64 63 63 64 64 65 64 63 62 63 64 64 65 65 65 63 59 55 55 58 56 55 56 56 57 58 60 63 61 61 60
69 69 69 70 69 69 68 66 67 66 66 65 64 66 66 65 66 65 66 64 63 64 65 65 65 65 63 56 53 50 58 55 54 54 55 56 55 60 62 61 61 59 58
68 69 69 69 69 68 67 66 66 66 65 66 66 66 64 65 66 66 65 65 64 65 66 65 65 63 56 53 51 45 51 51 51 52 52 60 60 61 60 59 59 58 55
66 68 68 68 68 67 66 65 65 66 66 65 66 64 64 66 66 66 65 65 65 66 65 64 63 57 49 42 35 36 45 51 54 55 56 60 60 59 57 57 57 55 53
66 67 67 67 68 67 65 65 64 64 64 64 64 63 62 65 65 64 64 65 65 65 62 56 49 43 36 32 28 30 47 50 54 57 61 59 58 56 55 54 54 52 52
66 66 67 67 67 67 65 65 64 63 63 63 63 63 61 62 63 63 63 63 63 62 58 50 43 32 26 27 25 29 46 50 53 55 57 58 56 54 52 50 48 47 46
66 66 67 67 67 67 66 65 64 63 62 62 62 62 62 60 62 62 62 61 61 59 54 47 33 26 23 24 24 26 43 49 51 53 54 54 53 51 48 46 45 43 42
64 67 68 67 67 67 66 65 64 63 62 61 61 61 61 60 60 61 61 60 60 59 48 35 27 26 24 24 23 24 39 46 49 50 50 50 49 45 43 41 40 39 40
54 60 67 68 68 67 66 65 64 63 62 61 60 60 59 58 59 60 59 59 58 53 36 28 27 26 25 25 24 23 30 44 46 47 46 42 43 41 38 37 36 36 37
41 47 59 67 67 67 66 66 64 63 62 62 62 61 60 57 57 58 58 57 49 38 30 28 27 26 25 23 22 22 25 37 42 42 40 36 38 36 35 33 33 32 32
36 38 48 61 66 67 66 66 64 64 62 62 62 62 60 57 56 57 56 52 38 32 30 29 27 24 22 22 21 22 26 26 38 38 36 33 35 30 30 32 31 29 27
36 36 39 56 62 66 66 65 65 64 63 63 62 62 60 57 55 54 51 44 34 31 29 27 25 25 23 21 23 25 31 29 27 33 33 28 31 27 25 25 21 22 29
35 35 36 46 59 62 64 64 64 62 63 62 62 62 58 56 54 52 46 37 33 31 29 25 24 22 21 24 24 27 27 28 26 26 26 26 26 24 23 20 20 20 21
35 36 35 37 52 61 63 64 63 63 63 62 62 61 57 55 53 50 44 37 32 30 27 26 25 24 22 21 20 25 22 22 22 22 27 26 23 21 19 20 19 20 20
33 34 35 37 39 57 62 62 59 59 57 58 59 58 55 54 53 49 43 38 32 31 28 27 27 26 23 20 20 21 19 17 20 19 20 20 20 19 20 20 20 20 19
30 31 33 35 38 43 59 62 60 60 59 60 60 58 54 53 52 48 44 39 35 32 30 28 29 28 24 20 20 18 17 18 13 11 18 20 20 18 18 20 20 20 19
29 30 30 31 34 39 50 61 61 60 59 58 57 56 54 52 50 46 44 41 36 32 31 28 27 27 25 22 22 18 17 18 17 13 10 16 19 19 19 20 20 19 19
33 34 34 34 34 35 43 57 61 60 57 55 54 54 52 50 47 43 41 39 37 35 33 29 27 26 24 23 21 17 16 15 15 14 14 15 15 17 20 20 19 18 19
Wind_Speed
10 14 19 19 18 18 18 18 18 18 18 17 16 15 15 13 12 10 9 9 9 8 7 9 9 12 13 13 11 10 10 10 10 10 10 11 11 10 8 8 10 7 6
18 15 20 18 18 18 17 18 17 17 19 19 17 14 13 12 11 10 9 9 9 8 9 9 10 11 13 13 9 8 9 9 9 8 7 8 7 8 7 5 6 5 5
20 17 19 19 17 17 16 16 16 17 18 18 18 15 13 12 11 10 10 10 10 9 8 11 13 13 12 9 7 8 9 9 8 6 5 4 4 6 6 5 3 2 4
20 17 16 19 19 17 16 16 15 16 16 17 16 16 15 13 12 11 11 10 10 9 9 9 9 9 9 8 7 8 9 8 7 5 5 4 0 6 5 3 2 4 2
19 18 18 20 19 18 16 15 15 15 17 17 17 18 15 14 13 12 12 11 10 9 8 8 8 8 8 7 7 7 7 7 7 4 4 6 2 3 5 3 2 3 3
17 17 20 20 18 16 15 14 14 15 16 17 18 18 16 14 13 12 12 11 10 9 8 7 7 7 7 5 5 6 7 7 6 3 5 5 1 3 7 10 12 8 3
15 15 19 20 18 17 15 15 15 16 15 18 20 18 16 15 13 12 11 10 9 8 7 6 6 6 6 5 5 6 7 7 7 6 5 2 3 8 8 8 9 10 11
18 16 16 19 17 16 15 15 14 15 16 17 17 17 17 16 14 13 11 10 8 7 6 7 7 6 4 4 5 6 6 6 8 10 7 4 6 7 7 7 11 12 14
15 15 14 15 16 16 14 14 15 16 16 16 17 16 16 15 15 15 13 11 9 7 6 7 6 5 4 5 6 6 5 7 8 7 6 4 5 6 6 9 10 13 15
14 15 14 14 13 13 13 15 14 16 15 15 14 13 12 11 11 14 13 12 10 8 7 7 5 4 6 7 8 9 11 11 8 7 5 3 3 8 10 12 12 12 14
15 16 14 15 14 14 14 14 15 17 15 14 13 13 11 9 12 13 13 12 10 9 8 6 6 6 7 7 9 9 9 7 5 5 3 4 10 12 13 12 12 13 12
20 18 16 18 15 16 13 13 13 13 13 13 12 11 8 7 11 13 13 12 10 9 7 6 7 7 6 6 7 9 7 7 6 4 1 9 11 11 12 11 11 10 10
22 19 19 18 17 17 14 14 14 13 13 13 14 13 11 9 8 10 10 9 8 7 5 5 5 5 7 6 6 7 7 6 5 5 7 10 10 10 12 9 10 10 9
24 25 21 20 20 19 14 15 15 15 15 15 15 14 13 11 11 11 11 10 9 7 7 6 6 6 7 7 7 8 8 7 6 6 9 11 10 11 10 9 9 9 9
18 20 23 22 21 20 17 15 15 16 16 16 16 15 14 13 14 12 12 10 9 8 8 7 7 7 6 7 6 7 8 8 8 8 9 13 12 10 9 9 8 8 8
20 21 20 22 22 21 20 18 16 16 15 16 16 16 17 14 13 13 13 12 10 9 7 9 8 7 6 6 6 6 7 7 7 8 8 10 11 10 9 7 7 7 8
21 20 21 21 20 21 22 19 16 16 16 16 15 16 17 16 17 15 15 13 12 10 10 9 8 7 7 6 6 5 7 8 8 8 7 8 8 9 8 7 6 6 7
15 17 22 21 21 23 22 18 17 16 17 16 16 14 17 17 18 15 15 15 12 12 13 11 10 7 5 4 5 4 6 7 9 8 7 6 6 6 6 6 6 6 6
21 21 19 22 23 24 21 19 19 19 18 15 16 16 18 18 17 17 17 16 15 15 14 13 6 6 5 3 4 4 4 6 9 8 9 7 6 5 4 5 6 5 6
18 18 21 20 24 23 20 18 16 14 17 14 17 18 19 19 20 19 15 18 18 15 13 10 9 5 4 5 5 5 3 3 6 8 8 5 4 4 3 3 3 4 5
18 17 17 20 23 21 18 20 17 22 19 17 18 19 20 19 21 19 17 19 16 18 17 14 8 7 4 4 6 4 3 4 3 3 4 4 5 3 3 4 3 4 6
20 16 14 19 22 22 21 23 15 18 19 20 17 15 20 23 22 22 22 22 21 16 17 17 13 7 3 5 5 4 4 1 1 1 2 5 6 6 6 5 5 6 5
22 21 20 16 19 22 24 15 5 7 6 9 13 15 15 20 22 22 24 23 22 19 22 20 18 16 11 3 5 5 4 6 3 1 2 3 6 6 4 3 4 5 5
21 20 16 15 14 17 19 20 21 24 21 19 22 17 19 18 20 18 21 22 23 20 19 18 14 13 11 13 5 4 4 5 5 4 1 2 2 5 1 1 4 4 7
14 13 12 12 12 13 16 20 23 23 18 13 15 21 20 16 17 18 18 19 19 18 17 20 17 14 8 12 8 6 3 3 4 3 4 5 4 6 4 1 3 5 7
5 5 7 10 10 12 15 20 24 23 18 17 17 19 19 18 18 18 18 19 17 17 19 17 17 16 13 9 7 9 7 5 6 5 4 4 5 4 3 5 1 3 4
Wind_Direction
178 171 156 160 157 153 150 146 145 144 140 137 133 126 122 117 111 107 108 114 108 105 112 131 148 149 138 123 113 105 91 83 88 86 74 64 64 69 78 63 52 53 78
152 160 156 161 159 158 152 148 149 149 144 142 139 136 127 120 118 117 118 122 118 108 90 97 152 145 126 107 104 94 89 91 91 86 81 68 49 70 67 66 64 62 85
152 155 156 159 158 156 152 149 149 147 147 145 142 140 133 125 118 117 117 123 123 121 93 77 86 92 96 102 94 87 94 90 78 69 84 90 58 67 67 62 59 346 131
154 151 155 157 156 157 155 156 158 155 153 148 146 145 137 128 121 116 115 118 121 117 107 98 95 95 98 96 86 91 88 75 68 70 111 142 12 68 70 70 7 1 31
154 153 156 156 159 159 156 159 164 165 162 159 156 147 141 133 126 121 118 116 117 118 110 105 103 100 100 95 83 82 70 47 50 46 133 159 168 84 66 46 342 341 316
154 153 157 156 159 159 158 162 166 166 166 161 157 146 145 140 134 130 128 126 126 123 120 116 113 111 109 101 86 75 59 40 33 18 163 198 199 59 51 49 44 36 335
150 153 153 158 161 161 160 163 164 165 157 161 153 152 154 150 146 140 140 140 138 137 132 129 125 119 109 94 76 63 55 49 55 87 103 89 44 53 55 35 32 45 36
152 156 157 160 163 165 167 166 169 170 164 160 163 167 163 161 158 156 155 154 156 150 149 139 135 126 111 88 67 62 76 84 78 87 91 72 58 63 54 50 68 54 48
155 156 160 162 167 170 173 172 182 171 170 166 166 168 169 170 170 171 166 167 166 164 159 150 147 135 104 67 58 59 63 96 99 87 77 62 57 74 74 82 77 73 59
160 164 164 163 168 173 176 180 187 174 176 175 176 170 171 182 188 183 172 174 172 167 169 170 153 129 99 78 57 73 91 84 80 75 54 18 91 96 89 78 78 68 65
174 176 172 170 173 176 178 185 187 184 181 181 175 173 183 197 207 182 174 177 172 175 160 156 150 126 100 68 79 75 85 78 74 61 28 47 99 97 81 69 72 73 68
181 183 183 186 180 177 182 185 184 189 184 184 181 182 185 187 166 165 175 178 177 176 165 160 146 120 97 98 81 77 89 89 78 56 12 106 103 92 74 68 72 71 66
186 184 188 187 186 180 182 183 185 189 190 192 189 187 188 178 167 168 174 179 177 170 154 129 112 106 106 105 91 87 104 99 85 57 84 103 106 90 79 77 72 70 67
190 193 190 191 189 187 184 185 188 189 193 197 199 195 188 184 183 181 184 187 180 173 161 146 130 117 99 97 102 100 115 113 103 85 75 85 97 96 98 88 79 71 59
199 196 197 194 192 189 188 187 189 193 194 198 200 200 194 192 192 188 195 189 185 172 166 155 140 126 109 102 100 111 126 126 115 100 91 94 100 103 99 90 82 70 58
207 207 198 199 195 189 193 192 193 197 198 196 199 199 197 193 193 194 195 196 189 179 162 157 146 134 112 105 101 99 127 129 123 115 105 101 106 110 102 92 82 70 58
211 208 202 204 198 195 196 194 194 198 199 201 201 196 194 190 193 194 194 191 193 176 153 135 123 115 112 103 115 121 133 148 145 136 127 118 110 108 110 94 80 67 51
224 212 206 204 199 199 200 197 198 198 200 203 200 196 192 193 192 185 184 191 182 161 155 148 143 124 121 134 139 134 138 155 160 155 146 138 132 118 111 102 91 73 47
228 226 218 200 201 204 202 195 201 197 202 203 201 197 191 191 186 181 184 182 170 163 167 161 148 144 155 136 142 132 128 157 175 166 168 166 163 148 135 118 100 70 35
250 228 216 208 206 199 197 198 202 195 202 198 208 200 189 187 184 180 177 172 166 169 169 169 156 117 139 148 128 116 69 145 167 181 182 174 177 163 144 106 54 14 359
262 248 221 208 209 204 189 190 202 202 201 202 207 204 184 183 182 175 174 165 169 177 180 166 138 151 126 147 129 97 66 68 128 168 190 192 180 149 117 93 24 358 340
250 257 239 222 206 207 200 203 199 198 211 207 206 203 182 179 181 176 174 175 175 171 172 173 162 155 127 159 151 120 170 211 162 47 169 178 157 139 119 72 39 20 3
250 246 248 235 218 205 203 195 157 135 110 177 196 198 193 181 180 186 178 176 175 174 182 185 180 172 163 149 181 157 152 214 170 35 102 101 139 134 113 61 63 8 17
255 253 252 246 235 222 205 194 200 199 202 200 204 195 189 184 180 188 184 177 178 177 180 187 176 181 154 165 141 129 99 138 176 193 192 179 144 163 48 133 7 67 51
261 250 244 244 235 227 213 201 205 215 220 201 185 185 185 180 181 183 183 180 184 178 174 169 174 184 176 170 159 156 143 99 110 148 193 217 253 233 272 279 105 92 64
249 220 205 204 215 215 211 210 210 215 205 193 186 183 185 184 182 182 178 178 180 171 170 172 170 178 177 165 175 158 164 163 182 170 197 220 246 275 263 311 121 119 75